Погода в Бали

Греция     35°24′38″N   24°46′51″E
темп.,
°C
ветер,
м/с
пор.,
м/с
влажн.,
%
обл.,
%
осадки,
мм/ч
давл.,
гПа
погр.,
м
16 мая, вс
вс1600:00+18з3463100 0.0 101193
03:00+18з57625 0.0 1010312
06:00+17з79775 0.0 1010514
09:00+19з89705 0.0 1011788
12:00+19зсз777045 0.0 1012618
15:00+19зсз897192 0.0 1012734
18:00+19з81172100 0.0 1011694
21:00+18з69765 0.0 1011453
17 мая, пн
пн1700:00+18з48705 0.0 1012396
03:00+18з46705 0.0 1011298
06:00+18з45720 0.0 1011262
09:00+19зсз55720 0.0 1013320
12:00+21зсз55692 0.0 1013391
15:00+21зсз710660 0.0 1013370
18:00+22зсз57610 0.0 1012210
21:00+21юз12634 0.0 101228
18 мая, вт
вт1800:00+21з01620 0.0 101216
03:00+21юз11610 0.0 101114
06:00+21з11610 0.0 101125
09:00+23юз13510 0.0 1012171
12:00+23зсз57560 0.0 1013272
15:00+24з69555 0.0 1012258
18:00+23з46565 0.0 1012190
21:00+21зсз13690 0.0 101342
19 мая, ср
ср1900:00+21вюв33645 0.0 101318
03:00+21вюв22643 0.0 101218
06:00+20ссв01660 0.0 101213
09:00+21зсз34695 0.0 1013178
12:00+22з56681 0.0 1013306
15:00+22зсз45680 0.0 1013273
18:00+21з55720 0.0 1012217
21:00+20зюз34680 0.0 101251
20 мая, чт
чт2000:00+22ю22410 0.0 101111
03:00+21зюз22500 0.0 101026
06:00+21зюз22510 0.0 101030
09:00+23сз33535 0.0 1011154
12:00+23сз355436 0.0 1011279
15:00+23зсз35575 0.0 1010287
18:00+23зсз46610 0.0 1010242
21:00+21з12730 0.0 101025